Preview of NWS' New Version of Forecast
This preview is not operational and should not be used for support decisions.

Regional Weather Roundup (RWR)

Issued by Gray - Portland, ME (GYX)

                            
000
ASUS41 KGYX 231110
RWRGYX
WEATHER ROUNDUP FOR MAINE AND NEW HAMPSHIRE
NATIONAL WEATHER SERVICE GRAY ME
700 AM EDT FRI AUG 23 2019

MEZ002-005-006-010-012-015-018-020-021-024-026-027-029-231200-
MAINE
  
CITY           SKY/WX    TMP DP  RH WIND       PRES   REMARKS
PORTLAND       PTSUNNY   65  57  75 W6        29.92R                  
SANFORD        FAIR      63  58  83 W5        29.93R                  
BAR HARBOR     FAIR      63  61  93 S3        29.88R                  
WISCASSET      FAIR      60  57  89 CALM      29.91R                  
ROCKLAND       FAIR      63  59  87 W5        29.89R                  
FRYEBURG       LGT RAIN  62  53  72 SW8       29.93R                  
LEWISTONAUBURN FAIR      61  56  83 CALM      29.92R                  
AUGUSTA        FAIR      63  54  72 NW6       29.91R                  
WATERVILLE     FAIR      60  57  89 W3        29.87R                  
BANGOR         FAIR      62  58  86 W6        29.87R                  
GREENVILLE       N/A     58  54  86 NW5       29.88R                  
MILLINOCKET    FAIR      59  57  93 CALM      29.87R                  
HOULTON        FAIR      52  51  97 CALM      29.83R                  
PRESQUE ISLE   FAIR      53  52  96 CALM      29.85R                  
FRENCHVILLE    FAIR      54  47  77 W8        29.82R                  
CARIBOU        FAIR      55  51  86 SW5       29.82R                  
$$

NHZ002-005-008-009-011-012-014-231200-
NEW HAMPSHIRE
  
CITY           SKY/WX    TMP DP  RH WIND       PRES   REMARKS
PORTSMOUTH     PTSUNNY   66  55  66 NW6       29.92R                  
ROCHESTER      FAIR      63  56  78 CALM      29.93R                  
NASHUA         FAIR      67  59  75 NW3       29.96R                  
MANCHESTER     CLOUDY    68  56  65 NW7       29.93R                  
CONCORD        FAIR      60  58  92 CALM      29.95R                  
LACONIA        FAIR      61  55  81 CALM      29.96R                  
PLYMOUTH       FAIR      55  52  90 W7        29.96R                  
BERLIN         NOT AVBL                                               
WHITEFIELD     FAIR      48  46  93 CALM      29.97R                  
JAFFREY        FAIR      62  55  77 CALM      29.99R                  
KEENE          FAIR      59  57  93 CALM      29.98R                  
LEBANON        FOG       55  52  89 CALM      29.97R VSB<1/4          
MT WASHINGTON  FOG       41  41 100 NW49        N/A  VSB 0            
$$

VTZ005-007-008-231200-
VERMONT
  
CITY           SKY/WX    TMP DP  RH WIND       PRES   REMARKS
ST JOHNSBURY     N/A     52  52 100 MISG      29.96R                  
MONTPELIER     FAIR      55  53  93 CALM      30.02R                  
BURLINGTON     FAIR      59  55  87 SW3       29.99R                  
$$

MAZ007-012-024-CTZ003-RIZ002-NYZ038-NYZ072-231200-
SOUTHERN NEW ENGLAND AND NY
  
CITY           SKY/WX    TMP DP  RH WIND       PRES   REMARKS
BOSTON         LGT RAIN  71  57  61 W8        29.95R                  
WORCESTER      CLOUDY    62  55  77 NW7       29.97R                  
NANTUCKET      FAIR      73  67  81 N5        29.93R                  
PROVIDENCE     MOCLDY    69  58  67 N5        29.95R                  
HARTFORD       CLOUDY    65  56  72 NW3       29.96R                  
ALBANY         MOCLDY    60  54  80 CALM      30.00R                  
NEW YORK CITY  CLOUDY    70  62  76 NE9       29.97R                  
$$

ANZ081-ANZ082-ANZ150-NHZ014-MEZ023>029-231200-
COASTAL MARINE OBSERVATIONS
  
STATION/POSITION TIME  TEMP    WIND        PRES    WAVE
                       AIR SEA DIR/SP/G            HT/PER
                 (UTC) (F)     (DEG/KT/KT) (MB)    (FT/S)
MATINICUS ROCK   1050   64                 1011.6R
ISLE OF SHOALS   1000   68     290/ 13/ 14 1011.7R
JEFFREYS LEDGE   1038      69                N/A     2/ 8
CASHES LEDGE BUO 1050   65 63  310/  6/  8 1012.7R   3/ 8
GEORGES BANK BUO 1050   70 65  240/ 12/ 14 1013.8R   6/ 8
$$

.............KEY..............
   WCI - WIND CHILL
   TC  - TEMPERATURE IN CELSIUS
   VSB - VISIBILITY IN MILES
   HX  - HEAT INDEX
   FAIR- INDICATES FEW OR NO CLOUDS BELOW 12,000 FT, WITH NO 
         SIGNIFICANT WEATHER AND/OR OBSTRUCTIONS TO VISIBILITY.